This demonstration page uses our WeatherBlox Daily Observations layout. Learn more.

Left ArrowRight Arrow

44.89941, -97.11507

Hourly Observations for July 17, 2020

Temp ( °F °C ) Dew Point ( °F °C ) Humidity (%) Winds ( mph kmh ) Pressure ( in mb ) Visibility ( mi km ) Precip ( " mm )
12:53 am 00:53 Mostly Clear 67 19.4 60 15.6 79 79 Calm 29.98 1015 10 16 0.00 0.00
1:53 am 01:53 Mostly Clear 67 19.4 59 15 76 76 Calm 29.97 1015 10 16 0.00 0.00
2:53 am 02:53 Mostly Cloudy 67 19.4 59 15 76 76 Calm 29.96 1014 10 16 0.00 0.00
3:53 am 03:53 Partly Cloudy 68 20 59 15 73 73 Calm 29.95 1014 10 16 0.00 0.00
4:53 am 04:53 Clear 68 20 63 17.2 84 84 Calm 29.94 1014 10 16 0.00 0.00
5:53 am 05:53 Clear 69 20.6 66 18.9 90 90 SSE 7 11 29.93 1014 10 16 0.00 0.00
6:53 am 06:53 Sunny 69 20.6 68 20 96 96 SSE 8 13 29.95 1014 9 14 0.00 0.00
7:15 am 07:15 Partly Cloudy 70 21.1 68 20 93 93 SSE 8 13 29.93 1013 9 14 0.00 0.00
7:35 am 07:35 Mostly Cloudy 71 21.7 69 20.6 94 94 SSE 6 9 29.92 1013 9 14 0.00 0.00
7:53 am 07:53 Mostly Cloudy 72 22.2 69 20.6 91 91 SSE 12 19 29.95 1014 9 14 0.00 0.00
8:53 am 08:53 Cloudy 74 23.3 71 21.7 91 91 SSE 10 17 29.94 1014 9 14 0.00 0.00
9:10 am 09:10 Partly Cloudy 75 23.9 71 21.7 88 88 SSE 10 17 29.89 1012 10 16 0.00 0.00
9:53 am 09:53 Sunny 78 25.6 72 22.2 82 82 SSE 12 19 29.93 1013 10 16 0.00 0.00
10:53 am 10:53 Partly Cloudy 82 27.8 73 22.8 74 74 SSE 14 22 29.93 1013 10 16 0.00 0.00
11:53 am 11:53 Sunny 84 28.9 73 22.8 70 70 SE 10 17 29.89 1012 10 16 0.00 0.00
12:53 pm 12:53 Sunny 88 31.1 74 23.3 63 63 SE 12 19 29.86 1011 10 16 0.00 0.00
1:53 pm 13:53 Sunny 89 31.7 71 21.7 55 55 SSE 17 28 29.84 1011 10 16 0.00 0.00
2:53 pm 14:53 Sunny 91 32.8 69 20.6 49 49 SSE 13 20 29.81 1010 10 16 0.00 0.00
3:53 pm 15:53 Sunny 89 31.7 71 21.7 55 55 SSE 20 31 29.79 1009 10 16 0.00 0.00
4:53 pm 16:53 Partly Cloudy 88 31.1 73 22.8 61 61 S 21 33 29.77 1008 10 16 0.00 0.00
5:53 pm 17:53 Mostly Sunny 86 30 75 23.9 70 70 SSE 20 31 29.74 1007 10 16 0.00 0.00
6:53 pm 18:53 Partly Cloudy 86 30 75 23.9 70 70 S 17 28 29.74 1007 10 16 0.00 0.00
7:53 pm 19:53 Mostly Cloudy 86 30 76 24.4 72 72 S 15 24 29.71 1006 10 16 0.00 0.00
8:53 pm 20:53 Sunny 84 28.9 76 24.4 77 77 SSE 16 26 29.67 1005 10 16 0.00 0.00
9:53 pm 21:53 Clear 82 27.8 77 25 85 85 S 14 22 29.68 1005 10 16 0.00 0.00
10:53 pm 22:53 Clear 82 27.8 76 24.4 82 82 S 16 26 29.66 1005 10 16 0.00 0.00
11:53 pm 23:53 Clear 81 27.2 75 23.9 82 82 SSW 15 24 29.70 1006 10 16 0.00 0.00

Powered by AerisWeather